Fort Lauderdale, FL

12:48 PM EST on December 05, 2019 (GMT -0500)
Fort Lauderdale Executive

Weather History for KFXE - October, 2019

Change the Weather History Date:

Tuesday, October 29, 2019

  Actual Average Record
Temperature  
Mean Temperature 84 °F -  
Max Temperature 88 °F 85 °F 91 °F (1980)
Min Temperature 80 °F 68 °F 53 °F (2008)
Cooling Degree Days 18    
Growing Degree Days 34 (Base 50)    
Moisture  
Dew Point 74 °F    
Average Humidity 76    
Maximum Humidity 85    
Minimum Humidity 61    
Precipitation  
Precipitation 0.00 in - - ()
Sea Level Pressure  
Sea Level Pressure 30.04 in    
Wind  
Wind Speed 8 mph ()    
Max Wind Speed 15 mph    
Max Gust Speed -    
Visibility 10.0 miles    
Events      
Averages and records for this station are not official NWS values.
T = Trace of Precipitation, MM = Missing Value Source: Averaged Metar Reports

Daily Weather History Graph

Daily Weather History Graph

Search for Another Location

Airport or City:

Astronomy

Oct. 29, 2019 Rise Set
Actual Time 7:27 AM EDT 6:40 PM EDT
Civil Twilight 7:03 AM EDT 7:04 PM EDT
Nautical Twilight 6:36 AM EDT 7:31 PM EDT
Astronomical Twilight 6:09 AM EDT 7:58 PM EDT
Moon 8:54 AM EDT (10/29) 8:11 PM EDT (10/29)
Length of Visible Light 12h 00m
Length of Day
11h 13m
Waxing Crescent, 3% of the Moon is Illuminated
Oct 29
Waxing Crescent
Nov 4
First Quarter
Nov 12
Full
Nov 19
Last Quarter
Nov 26
New

Hourly Weather History & Observations

Time (EDT) Temp. Heat Index Dew Point Humidity Pressure Visibility Wind Dir Wind Speed Gust Speed Precip Events Conditions
12:53 AM 81.0 °F 86.7 °F 75.0 °F 82% 30.05 in 10.0 mi East 8.1 mph - N/A   Partly Cloudy
1:53 AM 81.0 °F 86.7 °F 75.0 °F 82% 30.04 in 10.0 mi East 8.1 mph - N/A   Clear
2:53 AM 81.0 °F 86.7 °F 75.0 °F 82% 30.02 in 10.0 mi ESE 6.9 mph - N/A   Partly Cloudy
3:53 AM 80.1 °F 85.1 °F 75.0 °F 85% 30.01 in 10.0 mi East 4.6 mph - N/A   Scattered Clouds
4:09 AM 80.1 °F 85.1 °F 75.0 °F 85% 30.01 in 10.0 mi East 3.5 mph - N/A   Mostly Cloudy
4:18 AM 80.1 °F 85.1 °F 75.0 °F 85% 30.01 in 10.0 mi East 4.6 mph - N/A   Mostly Cloudy
4:30 AM 80.1 °F 85.1 °F 75.0 °F 85% 30.01 in 10.0 mi East 4.6 mph - N/A   Mostly Cloudy
4:37 AM 80.1 °F 85.1 °F 75.0 °F 85% 30.01 in 10.0 mi East 5.8 mph - N/A   Partly Cloudy
4:53 AM 80.1 °F 85.1 °F 75.0 °F 85% 30.01 in 10.0 mi East 8.1 mph - N/A   Partly Cloudy
5:53 AM 80.1 °F 85.1 °F 75.0 °F 85% 30.01 in 10.0 mi East 8.1 mph - N/A   Partly Cloudy
6:53 AM 81.0 °F 86.7 °F 75.0 °F 82% 30.03 in 10.0 mi ESE 8.1 mph - N/A   Partly Cloudy
7:53 AM 81.0 °F 86.7 °F 75.0 °F 82% 30.05 in 10.0 mi East 8.1 mph - N/A   Partly Cloudy
8:53 AM 82.9 °F 89.4 °F 73.9 °F 74% 30.06 in 10.0 mi East 12.7 mph - N/A   Partly Cloudy
9:36 AM 82.9 °F 90.2 °F 75.0 °F 77% 30.06 in 10.0 mi East 11.5 mph - N/A   Scattered Clouds
9:53 AM 84.9 °F 93.3 °F 75.0 °F 72% 30.07 in 10.0 mi East 15.0 mph - N/A   Scattered Clouds
10:42 AM 84.9 °F 93.3 °F 75.0 °F 72% 30.08 in 10.0 mi East 15.0 mph - N/A   Mostly Cloudy
10:49 AM 84.2 °F 92.3 °F 75.2 °F 74% 30.08 in 10.0 mi East 11.5 mph - N/A   Scattered Clouds
10:53 AM 84.9 °F 93.3 °F 75.0 °F 72% 30.09 in 10.0 mi East 13.8 mph - N/A   Scattered Clouds
11:53 AM 87.1 °F 95.4 °F 73.9 °F 65% 30.08 in 10.0 mi East 12.7 mph - N/A   Scattered Clouds
12:53 PM 87.1 °F 95.4 °F 73.9 °F 65% 30.06 in 10.0 mi East 11.5 mph - N/A   Scattered Clouds
1:53 PM 87.1 °F 93.6 °F 72.0 °F 61% 30.04 in 10.0 mi East 13.8 mph - N/A   Scattered Clouds
2:53 PM 87.1 °F 95.4 °F 73.9 °F 65% 30.02 in 10.0 mi East 13.8 mph - N/A   Scattered Clouds
3:53 PM 86.0 °F 93.8 °F 73.9 °F 67% 30.02 in 10.0 mi ESE 11.5 mph - N/A   Scattered Clouds
4:53 PM 84.9 °F 90.7 °F 72.0 °F 65% 30.01 in 10.0 mi East 13.8 mph - N/A   Partly Cloudy
5:53 PM 84.0 °F 89.6 °F 72.0 °F 67% 30.02 in 10.0 mi ENE 10.4 mph - N/A   Clear
6:53 PM 82.0 °F 86.7 °F 72.0 °F 71% 30.02 in 10.0 mi ENE 10.4 mph - N/A   Scattered Clouds
7:53 PM 82.0 °F 86.7 °F 72.0 °F 71% 30.03 in 10.0 mi ENE 10.4 mph - N/A   Scattered Clouds
8:53 PM 81.0 °F 86.7 °F 75.0 °F 82% 30.04 in 10.0 mi ENE 8.1 mph - N/A   Clear
9:53 PM 81.0 °F 86.2 °F 73.9 °F 79% 30.06 in 10.0 mi ENE 9.2 mph - N/A   Scattered Clouds
10:53 PM 81.0 °F 86.2 °F 73.9 °F 79% 30.07 in 10.0 mi ENE 9.2 mph - N/A   Scattered Clouds
11:53 PM 81.0 °F 86.2 °F 73.9 °F 79% 30.06 in 10.0 mi ENE 8.1 mph - N/A   Scattered Clouds